User: anonymous
Location: Blue Mountain Vista Observatory
(40.6992°N, 75.9422°W)
Time: 13:59:48
(UTC-04:00)
Language:

IDEFIX/ARIANE 42P - Orbit

View from above orbital plane
View from above orbital plane
View from above satellite
View from above satellite

Ground track
Ground track

The orbit data is extracted from the following two-line orbital elements,

1 27422U 02021B   14233.20859345  .00000042  00000-0  32608-4 0  5660
2 27422 098.2949 272.5889 0013089 056.4081 345.2905 14.29040681639423
Epoch (UTC): 21 August 2014 05:00:22
Eccentricity: 0.0013089
inclination: 98.2949°
perigee height: 785 km
apogee height: 804 km
right ascension of ascending node: 272.5889°
argument of perigee: 56.4081°
revolutions per day: 14.29040681
mean anomaly at epoch: 345.2905°
orbit number at epoch: 63942

The dashed part of the orbit path shows where the satellite is in the earth's shadow,  

DLR